Tracking 35275 objects as of 9-Sep-2026
HD Live streaming from Space Station
objects crossing your sky now

ATLAS 5 CENTAUR DEB

Track ATLAS 5 CENTAUR DEB now!


NORAD ID: 43990
Int'l Code: 2014-055AV
Launch date: September 17, 2014
Source: United States (US)
Launch site: AIR FORCE EASTERN TEST RANGE (AFETR)

Note: This is SATELLITE DEBRIS
Your satellite tracking list
Your tracking list is empty




NASA's NSSDC Master Catalog

Two Line Element Set (TLE):
1 43990U 14055AV  26248.84908097 -.00000152  00000-0  00000-0 0  9996
2 43990  20.5005 126.7367 4719562 196.5427 140.3419  1.88649585 54644
Source of the keplerian elements: AFSPC